User: anonymous   Login
Location: Peebles
(55.6412°N, 3.1714°W)
Time: 06:58:08
(UTC+00:00)
Language:

IRS-1C Rocket - Orbit

View from above orbital plane
View from above orbital plane
View from above satellite
View from above satellite

Ground track
Ground track

The orbit data is extracted from the following two-line orbital elements,

1 23753U 95072C   21336.84139209 -.00000033  00000-0  54867-5 0  9996
2 23753  98.9324   9.1771 0003084 209.2844 150.8163 14.26604682349588
Epoch (UTC): 02 December 2021 20:11:36
Eccentricity: 0.0003084
inclination: 98.9324°
perigee height: 801 km
apogee height: 805 km
right ascension of ascending node: 9.1771°
argument of perigee: 209.2844°
revolutions per day: 14.26604682
mean anomaly at epoch: 150.8163°
orbit number at epoch: 34958

The dashed part of the orbit path shows where the satellite is in the earth's shadow,  

DLR